Torna al catalogo

ARIANE 2 DEB

AttivoGTO
NORAD 33556·DEBRIS·🇫🇷 France

Lanciato Jan 27, 1989 da Guiana Space Centre

Loading…

TLE

ObsoletoSource: Space-Track

Epoca: Sep 12, 2026, 23:30 UTC

1 33556U 89006AY  26255.97967218  .00000038  00000-0  92937-3 0  9998
2 33556   9.4068  97.9607 7117003   2.8211 359.7898  2.31818052104455

Traccia ARIANE 2 DEB in tempo reale con AllMySat

Download on the App Store